�������l�o���
Date,Time,MP-1(��Sv/h),MP-2(��Sv/h),MP-3(��Sv/h),MP-4(��Sv/h),MP-5(��Sv/h),MP-6(��Sv/h),MP-7(��Sv/h),MP-8(��Sv/h),����,����(m/s),���J
2020/06/20,00:00,0.677,0.954,0.626,1.182,0.844,0.390,0.680,0.636,�k,4.7,��
2020/06/20,00:10,0.677,0.957,0.624,1.183,0.841,0.388,0.678,0.636,�k,6.2,��
2020/06/20,00:20,0.676,0.956,0.624,1.182,0.842,0.390,0.680,0.635,�k�k��,4.1,�L
2020/06/20,00:30,0.675,0.957,0.625,1.183,0.844,0.390,0.679,0.636,�k,3.8,�L
2020/06/20,00:40,0.678,0.957,0.624,1.180,0.842,0.390,0.678,0.635,�k,5.5,�L
2020/06/20,00:50,0.677,0.954,0.624,1.182,0.845,0.388,0.679,0.635,�k,4.4,�L
2020/06/20,01:00,0.677,0.953,0.626,1.185,0.843,0.388,0.679,0.635,�k,4.6,��
2020/06/20,01:10,0.677,0.958,0.625,1.181,0.844,0.389,0.679,0.636,�k�k��,4.3,�L
2020/06/20,01:20,0.674,0.954,0.625,1.184,0.844,0.389,0.676,0.636,�k,4.4,�L
2020/06/20,01:30,0.677,0.957,0.626,1.183,0.844,0.389,0.678,0.634,�k,3.6,�L
2020/06/20,01:40,0.675,0.957,0.626,1.182,0.843,0.390,0.677,0.635,�k�k��,3.2,�L
2020/06/20,01:50,0.675,0.954,0.624,1.184,0.844,0.389,0.679,0.635,�k�k��,4.6,�L
2020/06/20,02:00,0.676,0.956,0.623,1.183,0.844,0.390,0.677,0.634,�k,3.6,�L
2020/06/20,02:10,0.673,0.956,0.624,1.182,0.845,0.390,0.676,0.634,�k,2.8,��
2020/06/20,02:20,0.673,0.958,0.627,1.183,0.844,0.389,0.679,0.636,�k�k��,3.8,��
2020/06/20,02:30,0.675,0.958,0.625,1.183,0.844,0.390,0.677,0.635,�k��,2.3,��
2020/06/20,02:40,0.676,0.958,0.624,1.182,0.844,0.389,0.680,0.634,�k��,3.1,��
2020/06/20,02:50,0.675,0.959,0.625,1.182,0.845,0.390,0.676,0.635,�k��,3.3,��
2020/06/20,03:00,0.677,0.959,0.626,1.185,0.844,0.391,0.678,0.636,�k��,2.3,��
2020/06/20,03:10,0.679,0.958,0.624,1.181,0.847,0.391,0.678,0.637,�k�k��,2.9,��
2020/06/20,03:20,0.677,0.958,0.627,1.184,0.846,0.392,0.678,0.639,�k�k��,3.3,��
2020/06/20,03:30,0.678,0.960,0.625,1.185,0.846,0.390,0.679,0.636,�k�k��,3.8,��
2020/06/20,03:40,0.680,0.959,0.627,1.182,0.846,0.392,0.679,0.636,�k��,1.7,��
2020/06/20,03:50,0.678,0.959,0.625,1.182,0.847,0.391,0.680,0.638,�k��,1.7,��
2020/06/20,04:00,0.679,0.961,0.627,1.183,0.847,0.392,0.679,0.638,���k��,2.2,��
2020/06/20,04:10,0.678,0.959,0.626,1.183,0.846,0.391,0.680,0.637,�k��,2.2,��
2020/06/20,04:20,0.679,0.960,0.626,1.184,0.846,0.391,0.681,0.637,�k�k��,1.7,��
2020/06/20,04:30,0.678,0.960,0.625,1.182,0.847,0.392,0.679,0.639,�k��,1.9,��
2020/06/20,04:40,0.678,0.958,0.626,1.185,0.847,0.390,0.680,0.639,�k��,2.5,��
2020/06/20,04:50,0.677,0.961,0.626,1.184,0.848,0.392,0.681,0.638,�k��,2.6,�L
2020/06/20,05:00,0.679,0.961,0.626,1.183,0.847,0.392,0.681,0.637,�k��,3.1,�L
2020/06/20,05:10,0.678,0.962,0.625,1.183,0.846,0.391,0.681,0.639,�k��,3.2,��
2020/06/20,05:20,0.680,0.961,0.625,1.182,0.848,0.392,0.680,0.638,���k��,2.3,��
2020/06/20,05:30,0.679,0.961,0.626,1.184,0.848,0.391,0.680,0.639,�k��,1.7,��
2020/06/20,05:40,0.678,0.960,0.626,1.184,0.848,0.392,0.680,0.638,�k��,1.5,��
2020/06/20,05:50,0.678,0.962,0.626,1.185,0.848,0.391,0.680,0.638,���k��,1.4,��
2020/06/20,06:00,0.679,0.960,0.626,1.184,0.846,0.391,0.682,0.638,��,1.5,��
2020/06/20,06:10,0.678,0.960,0.626,1.184,0.848,0.392,0.681,0.638,���k��,1.1,��
2020/06/20,06:20,0.678,0.959,0.623,1.186,0.845,0.391,0.681,0.639,�k��,1.1,��
2020/06/20,06:30,0.680,0.958,0.625,1.185,0.846,0.390,0.683,0.637,��,0.8,��
2020/06/20,06:40,0.679,0.955,0.626,1.188,0.848,0.392,0.682,0.638,��,1.1,��
2020/06/20,06:50,0.680,0.959,0.625,1.184,0.847,0.393,0.681,0.640,��,1.5,��
2020/06/20,07:00,0.680,0.960,0.626,1.185,0.847,0.391,0.681,0.639,�k�k��,1.5,��
2020/06/20,07:10,0.681,0.959,0.628,1.185,0.847,0.391,0.682,0.638,�k�k��,0.9,��
2020/06/20,07:20,0.681,0.960,0.627,1.186,0.849,0.391,0.683,0.638,-,CALM,��
2020/06/20,07:30,0.680,0.962,0.628,1.186,0.851,0.391,0.682,0.641,-,CALM,��
2020/06/20,07:40,0.679,0.962,0.626,1.187,0.848,0.390,0.680,0.638,�k�k��,1.2,��
2020/06/20,07:50,0.682,0.964,0.626,1.185,0.852,0.391,0.682,0.639,�k��,1.1,��
2020/06/20,08:00,0.681,0.961,0.627,1.188,0.849,0.391,0.683,0.636,��,2.0,��
2020/06/20,08:10,0.679,0.964,0.627,1.189,0.849,0.391,0.681,0.638,��,1.9,��
2020/06/20,08:20,0.680,0.965,0.627,1.186,0.848,0.391,0.681,0.638,��,1.4,��
2020/06/20,08:30,0.680,0.962,0.628,1.189,0.848,0.391,0.681,0.636,���k��,1.7,��
2020/06/20,08:40,0.682,0.961,0.627,1.188,0.850,0.392,0.681,0.636,���쓌,1.9,��
2020/06/20,08:50,0.682,0.963,0.626,1.188,0.850,0.392,0.681,0.637,�쓌,3.1,��
2020/06/20,09:00,0.682,0.963,0.628,1.189,0.850,0.394,0.682,0.636,�쓌,4.2,��
2020/06/20,09:10,0.682,0.963,0.627,1.189,0.854,0.391,0.681,0.637,�쓌,4.1,��
2020/06/20,09:20,0.686,0.964,0.630,1.190,0.853,0.393,0.683,0.637,�쓌,4.0,��
2020/06/20,09:30,0.682,0.963,0.629,1.191,0.853,0.394,0.681,0.637,��쓌,4.0,��
2020/06/20,09:40,0.684,0.964,0.630,1.191,0.852,0.393,0.682,0.637,�쓌,4.6,��
2020/06/20,09:50,0.685,0.967,0.630,1.189,0.854,0.393,0.684,0.638,�쓌,3.3,��
2020/06/20,10:00,0.685,0.966,0.631,1.193,0.855,0.394,0.685,0.636,��쓌,3.2,��
2020/06/20,10:10,0.684,0.967,0.631,1.194,0.857,0.394,0.683,0.641,�쓌,3.6,��
2020/06/20,10:20,0.684,0.967,0.632,1.191,0.855,0.396,0.683,0.638,��쓌,3.0,��
2020/06/20,10:30,0.684,0.969,0.632,1.191,0.856,0.394,0.685,0.638,��쓌,3.8,��
2020/06/20,10:40,0.685,0.969,0.632,1.191,0.858,0.396,0.683,0.639,��쓌,5.5,��
2020/06/20,10:50,0.685,0.971,0.629,1.192,0.857,0.395,0.684,0.639,��쓌,5.6,��
2020/06/20,11:00,0.687,0.969,0.631,1.191,0.856,0.395,0.685,0.639,��쓌,4.6,�L
2020/06/20,11:10,0.686,0.971,0.629,1.193,0.858,0.395,0.685,0.639,��,4.6,��
2020/06/20,11:20,0.687,0.971,0.633,1.190,0.856,0.395,0.685,0.639,��,3.5,��
2020/06/20,11:30,0.687,0.970,0.632,1.191,0.857,0.396,0.685,0.637,��쐼,3.8,�L
2020/06/20,11:40,0.684,0.974,0.632,1.193,0.857,0.397,0.684,0.639,�쐼,3.2,��
2020/06/20,11:50,0.688,0.973,0.632,1.194,0.854,0.398,0.686,0.638,���쐼,3.4,�L
2020/06/20,12:00,0.686,0.974,0.634,1.194,0.856,0.395,0.684,0.639,���k��,4.3,��
2020/06/20,12:10,0.687,0.977,0.632,1.193,0.858,0.397,0.685,0.638,��,5.1,��
2020/06/20,12:20,0.687,0.976,0.632,1.193,0.859,0.396,0.686,0.637,���k��,4.2,��
2020/06/20,12:30,0.688,0.973,0.632,1.194,0.858,0.397,0.685,0.639,���k��,4.9,��
2020/06/20,12:40,0.687,0.973,0.631,1.195,0.857,0.398,0.685,0.639,���k��,4.1,��
2020/06/20,12:50,0.688,0.977,0.633,1.194,0.859,0.398,0.685,0.639,�k��,3.2,��
2020/06/20,13:00,0.689,0.976,0.635,1.196,0.859,0.398,0.686,0.638,�k��,3.7,��
2020/06/20,13:10,0.688,0.974,0.632,1.194,0.860,0.397,0.686,0.639,�k,3.2,��
2020/06/20,13:20,0.689,0.976,0.632,1.196,0.859,0.397,0.685,0.638,�k��,0.8,��
2020/06/20,13:30,0.688,0.974,0.632,1.194,0.860,0.395,0.685,0.640,��,0.6,��
2020/06/20,13:40,0.688,0.973,0.634,1.194,0.861,0.397,0.686,0.638,��,2.0,��
2020/06/20,13:50,0.688,0.972,0.631,1.193,0.860,0.396,0.685,0.640,��쓌,2.3,��
2020/06/20,14:00,0.687,0.973,0.631,1.194,0.861,0.397,0.686,0.639,��쐼,1.5,��
2020/06/20,14:10,0.688,0.975,0.633,1.194,0.860,0.398,0.684,0.641,-,CALM,��
2020/06/20,14:20,0.687,0.976,0.635,1.196,0.861,0.396,0.685,0.639,�쓌,2.2,��
2020/06/20,14:30,0.688,0.975,0.634,1.194,0.861,0.396,0.685,0.639,��,2.3,��
2020/06/20,14:40,0.688,0.976,0.635,1.195,0.860,0.396,0.686,0.638,��,2.3,��
2020/06/20,14:50,0.688,0.977,0.635,1.195,0.864,0.395,0.684,0.639,���쓌,3.7,��
2020/06/20,15:00,0.688,0.977,0.635,1.195,0.861,0.397,0.685,0.639,���쓌,3.9,��
2020/06/20,15:10,0.687,0.978,0.636,1.197,0.862,0.396,0.687,0.639,���쓌,2.6,��
2020/06/20,15:20,0.689,0.979,0.635,1.198,0.860,0.396,0.684,0.639,���쓌,1.5,��
2020/06/20,15:30,0.689,0.980,0.635,1.197,0.863,0.396,0.686,0.640,-,CALM,��
2020/06/20,15:40,0.690,0.979,0.634,1.196,0.863,0.396,0.686,0.641,�쐼,0.9,��
2020/06/20,15:50,0.691,0.977,0.634,1.199,0.860,0.396,0.687,0.639,��,4.2,��
2020/06/20,16:00,0.691,0.980,0.636,1.198,0.861,0.396,0.687,0.640,���쐼,5.3,��
2020/06/20,16:10,0.688,0.980,0.635,1.199,0.861,0.396,0.685,0.640,���쐼,5.1,��
2020/06/20,16:20,0.688,0.981,0.636,1.198,0.864,0.396,0.687,0.640,��,4.2,��
2020/06/20,16:30,0.692,0.982,0.635,1.200,0.864,0.396,0.688,0.640,��,4.9,��
2020/06/20,16:40,0.689,0.983,0.637,1.197,0.864,0.395,0.686,0.640,��,5.2,��
2020/06/20,16:50,0.687,0.979,0.637,1.201,0.866,0.395,0.688,0.641,���k��,3.0,��
2020/06/20,17:00,0.688,0.981,0.636,1.201,0.864,0.396,0.688,0.640,�k�k��,2.6,��
2020/06/20,17:10,0.689,0.981,0.635,1.204,0.867,0.398,0.686,0.640,�k��,4.0,��
2020/06/20,17:20,0.691,0.981,0.635,1.204,0.866,0.396,0.687,0.641,���k��,4.2,��
2020/06/20,17:30,0.690,0.980,0.635,1.200,0.865,0.394,0.687,0.641,��,3.3,��
2020/06/20,17:40,0.691,0.981,0.635,1.201,0.866,0.397,0.688,0.640,���쓌,3.6,��
2020/06/20,17:50,0.686,0.982,0.635,1.203,0.865,0.398,0.687,0.641,���쓌,3.4,��
2020/06/20,18:00,0.689,0.983,0.637,1.201,0.867,0.397,0.689,0.643,���쓌,3.0,��
2020/06/20,18:10,0.688,0.984,0.637,1.203,0.865,0.398,0.687,0.643,��,3.6,��
2020/06/20,18:20,0.690,0.982,0.638,1.202,0.865,0.397,0.688,0.642,�k��,3.5,��
2020/06/20,18:30,0.689,0.984,0.635,1.203,0.867,0.398,0.687,0.643,�k��,3.3,��
2020/06/20,18:40,0.691,0.984,0.636,1.202,0.865,0.398,0.687,0.642,�k��,3.4,��
2020/06/20,18:50,0.691,0.987,0.635,1.204,0.865,0.397,0.686,0.643,���k��,3.3,��
2020/06/20,19:00,0.692,0.984,0.635,1.202,0.866,0.398,0.685,0.642,���k��,2.0,��
2020/06/20,19:10,0.690,0.983,0.635,1.204,0.867,0.397,0.687,0.642,�쓌,1.5,��
2020/06/20,19:20,0.693,0.984,0.636,1.203,0.866,0.397,0.686,0.642,���쓌,1.1,��
2020/06/20,19:30,0.691,0.984,0.636,1.203,0.865,0.397,0.688,0.642,�k�k��,2.2,��
2020/06/20,19:40,0.691,0.980,0.637,1.204,0.863,0.397,0.687,0.641,�k,2.3,��
2020/06/20,19:50,0.690,0.984,0.637,1.205,0.865,0.397,0.687,0.641,�k�k��,2.6,��
2020/06/20,20:00,0.692,0.984,0.637,1.203,0.864,0.397,0.687,0.642,�k��,1.9,��
2020/06/20,20:10,0.692,0.985,0.637,1.203,0.867,0.398,0.687,0.641,�k,0.8,��
2020/06/20,20:20,0.691,0.983,0.635,1.204,0.867,0.397,0.687,0.642,-,CALM,��
2020/06/20,20:30,0.691,0.982,0.637,1.204,0.865,0.395,0.688,0.643,�k,0.9,��
2020/06/20,20:40,0.691,0.984,0.635,1.205,0.867,0.397,0.688,0.642,�k�k��,2.0,��
2020/06/20,20:50,0.689,0.982,0.636,1.203,0.865,0.398,0.688,0.641,���k��,1.7,��
2020/06/20,21:00,0.689,0.983,0.636,1.203,0.866,0.397,0.686,0.641,��,2.0,��
2020/06/20,21:10,0.690,0.984,0.636,1.202,0.867,0.396,0.688,0.642,���k��,2.3,��
2020/06/20,21:20,0.691,0.984,0.636,1.201,0.866,0.396,0.688,0.642,���k��,3.2,��
2020/06/20,21:30,0.690,0.984,0.637,1.203,0.868,0.396,0.688,0.642,���k��,3.6,��
2020/06/20,21:40,0.689,0.984,0.637,1.204,0.866,0.396,0.689,0.641,���쐼,1.2,��
2020/06/20,21:50,0.689,0.983,0.636,1.204,0.867,0.397,0.688,0.643,���k��,2.2,��
2020/06/20,22:00,0.692,0.984,0.635,1.204,0.865,0.397,0.688,0.642,���k��,2.8,��
2020/06/20,22:10,0.690,0.983,0.636,1.204,0.867,0.397,0.687,0.642,���k��,3.4,��
2020/06/20,22:20,0.689,0.983,0.637,1.205,0.866,0.397,0.686,0.643,���k��,4.6,��
2020/06/20,22:30,0.688,0.981,0.636,1.206,0.867,0.396,0.688,0.642,���k��,4.3,��
2020/06/20,22:40,0.689,0.982,0.638,1.203,0.865,0.395,0.688,0.642,���k��,3.5,��
2020/06/20,22:50,0.689,0.983,0.633,1.205,0.868,0.396,0.687,0.641,���k��,4.1,��
2020/06/20,23:00,0.691,0.981,0.635,1.206,0.866,0.397,0.688,0.641,�k��,3.8,��
2020/06/20,23:10,0.691,0.980,0.636,1.205,0.864,0.395,0.688,0.642,�k,1.4,��
2020/06/20,23:20,0.690,0.981,0.636,1.206,0.866,0.397,0.688,0.643,��,1.5,��
2020/06/20,23:30,0.690,0.982,0.636,1.206,0.864,0.397,0.690,0.643,���k��,2.0,��
2020/06/20,23:40,0.690,0.981,0.634,1.206,0.866,0.397,0.689,0.642,�k��,3.4,��
2020/06/20,23:50,0.690,0.982,0.636,1.204,0.864,0.397,0.689,0.643,�k��,3.8,��
